Regional Weather Roundup
Issued by NWS Boston, MA

Home | Current Version | Previous Version | Text Only | Print | Product List | Glossary On
Versions: 1 2 3 4 5 6 7 8 9 10 11 12 13 14 15 16 17 18 19 20 21 22 23 24 25 26 27 28 29 30 31 32 33 34 35 36 37 38 39 40 41 42 43 44 45 46 47 48 49 50
000
ASUS41 KBOX 262310
RWRBOX

REGIONAL WEATHER ROUNDUP
NATIONAL WEATHER SERVICE TAUNTON MA
600 PM EST MON JAN 26 2015

NOTE:  "FAIR" INDICATES FEW OR NO CLOUDS BELOW 12,000 FEET WITH NO
SIGNIFICANT WEATHER AND/OR OBSTRUCTIONS TO VISIBILITY.  THE FOLLOWING
OBSERVATION LOCATIONS DO NOT REPORT PRESENT WEATHER...PROVINCETOWN...
SMITHFIELD...BLOCK ISLAND...KEENE...AND OXFORD.

MAZALL-270000-
EASTERN MASSACHUSETTS

CITY           SKY/WX    TMP DP  RH WIND       PRES   REMARKS
BOSTON         LGT SNOW  28  24  85 NE17G30   30.03F FOG     WCI  16
BEVERLY        LGT SNOW  27  19  72 NE12G23   30.05S WCI  17
LAWRENCE       LGT SNOW  20  17  88 N14       30.08S FOG     WCI   7
BEDFORD        LGT SNOW  21  18  88 N9        30.03F FOG     WCI  11
BLUE HILL        N/A     25  22  88 NE16G32   29.95F WCI  12
NORWOOD        LGT SNOW  28  23  81 NE13G20   30.01F WCI  17
MARSHFIELD     CLOUDY    32  28  86 NE20G31   30.02F HAZE    WCI  20
PLYMOUTH       LGT SNOW  30  26  85 NE17G29   29.97F FOG     WCI  18
TAUNTON        LGT SNOW  29  25  85 NE8G18    29.97F FOG     WCI  21
NEW BEDFORD    LGT SNOW  29  27  92 NE16G25   29.93F FOG     WCI  17
$$

MAZALL-270000-
CAPE COD AND THE ISLANDS

CITY           SKY/WX    TMP DP  RH WIND       PRES   REMARKS
FALMOUTH       LGT SNOW  30  28  93 NE22G31   29.94F WCI  17
HYANNIS        LGT SNOW  30  28  92 NE17G23   29.93F VSB 1   WCI  18
CHATHAM        SNOW      31  29  92 NE20G33   29.96F VSB 1/2 WCI  19
PROVINCETOWN   CLOUDY    30  25  80 NE23G31   30.01S WCI  17
NANTUCKET      LGT SNOW  33  30  88 NE21G35   29.89F VSB 3/4 WCI  21
MARTHAS VNYRD  LGT SNOW  31  28  89 NE29G38   29.89F VSB 3/4 WCI  16
$$

MAZALL-270000-
CENTRAL AND WESTERN MASSACHUSETTS

CITY           SKY/WX    TMP DP  RH WIND       PRES   REMARKS
WORCESTER      LGT SNOW  17  15  92 NE15G26   29.94F VSB 1   WCI   2
FITCHBURG      FLURRIES  21  12  68 N8        30.04S WCI  11
ORANGE         FLURRIES  20  10  65 NE8       30.02R WCI  10
SPRINGFIELD    LGT SNOW  21  16  82 NE14      29.98S WCI   8
WESTFIELD      LGT SNOW  20  14  77 N10       29.98F WCI   9
NORTH ADAMS    CLOUDY    20  10  65 E12G21    29.98R WCI   8
PITTSFIELD     CLOUDY    17  10  74 NE14      29.92R WCI   3
$$

RIZALL-270000-
RHODE ISLAND

CITY           SKY/WX    TMP DP  RH WIND       PRES   REMARKS
PROVIDENCE     LGT SNOW  28  24  85 NE20G26   29.95F FOG     WCI  15
NEWPORT        LGT SNOW  29  26  89 NE17      29.91F FOG     WCI  17
BLOCK ISLAND   CLOUDY    32  27  80 NE28G38   29.85F WCI  18
SMITHFIELD     CLOUDY    27  18  69 NE14G20   29.93F WCI  15
WESTERLY       LGT SNOW  28  25  88 NE12      29.89F FOG     WCI  18
$$

CTZALL-270000-
CONNECTICUT

CITY           SKY/WX    TMP DP  RH WIND       PRES   REMARKS
BRADLEY INTL   LGT SNOW  21  16  81 N16       29.96F WCI   7
HARTFORD       LGT SNOW  21  18  88 N14       29.96F VSB 1   WCI   8
BRIDGEPORT     LGT SNOW  24  21  88 NE24G31   29.88F FOG     WCI   8
DANBURY        LGT SNOW  21  15  78 NE12G20   29.90R WCI   9
GROTON         LGT SNOW  27  24  89 NE16      29.89F FOG     WCI  15
NEW HAVEN      LGT SNOW  24  20  84 N20G28    29.89F FOG     WCI  10
CHESTER        LGT SNOW  23  21  93 NE13      29.89S WCI  11
MERIDEN        LGT SNOW  22  17  81 N9        29.93F WCI  12
WILLIMANTIC    LGT SNOW  23  18  81 NE10      29.94F WCI  12
OXFORD         FLURRIES  19  10  68 NE15G25   29.88  WCI   5
$$

MEZ002-015-021-024-NHZ003-005-008-011-012-014-VTZ005-008-270000-
NORTHERN NEW ENGLAND

CITY           SKY/WX    TMP DP  RH WIND       PRES   REMARKS
PORTLAND ME    CLOUDY    19  -2  39 N12       30.18R WCI   7
BANGOR ME      CLOUDY    12  -3  51 NE6       30.24R WCI   3
CONCORD NH     CLOUDY    19   6  57 NE10G17   30.12R WCI   7
MANCHESTER NH  CLOUDY    19  10  68 NE12G21   30.09R WCI   7
NASHUA NH      CLOUDY    20  13  74 N9G16     30.09R WCI   9
PORTSMOUTH NH  FLURRIES  20  10  64 N13       30.10S WCI   8
JAFFREY NH     CLOUDY    17   6  62 VRB6      30.01R WCI   9
KEENE NH       CLOUDY    19   5  53 NE3       30.05R
BURLINGTON VT  MOCLDY     8  -3  61 N8        30.12F WCI  -4
MT. WASHINGTON MOCLDY    12 -17  26 S12         N/A  WCI  -2
$$

NYZ052-076-270000-
EASTERN NEW YORK

CITY           SKY/WX    TMP DP  RH WIND       PRES   REMARKS
ALBANY         FLURRIES  17   8  67 N10       30.04R WCI   5
NEW YORK CITY  LGT SNOW  27  23  85 NE23G32   29.85R FOG     WCI  12
$$

ANZALL-270000-
MARINE OBSERVATIONS

STATION/POSITION TIME  TEMP    WIND        PRES    VSBY  WAVE
                       AIR SEA DIR/SP/G                  HT/PER
                 (UTC) (F)     (DEG/KT/KT) (MB)    (MI)  (FT/S)
BOSTON BUOY      2250   31 41   60/ 25/ 29 1016.4S         6/ 6
BUZZARDS BAY     2200           50/ 28/ 32 1013.3S
NANTUCKET SOUND  2250   32 37   60/ 29/ 33 1011.9F         5/ 6
MASS BAY-STELLWA 2204   30 42   60/ 21/ 27   N/A    1 7/8  6/ 5
ISLE OF SHOALS   2300   26      50/ 25/ 30 1017.6F
S OF BLOCK IS    2208      45                N/A           9/ 6
$$

......................KEY.........................
  SKY/WX - SKY CONDITION/PRESENT WEATHER
  TMP    - TEMPERATURE IN FAHRENHEIT
  DWPT   - DEWPOINT IN FAHRENHEIT
  RH     - RELATIVE HUMIDITY IN PERCENT
  WIND   - DIRECTION AND SPEED IN MPH
  PRES   - MEAN SEA LEVEL PRESSURE IN INCHES OF HG
  WCI    - WIND CHILL INDEX
  VSB    - VISIBILITY IN MILES
  HX     - HEAT INDEX
  TC     - TEMPERATURE IN CELSIUS
  VRB    - VARIABLE WIND DIRECTION
  N/A    - NOT AVAILABLE


USA.gov is the U.S. government's official web portal to all federal, state and local government web resources and services.